Lid_Strength_Index
-1 -1 -1 2 9 9 11 10 7 7 7 4 4 5 6 5 7 10 1 0 -0 -0 -1 -1 -1 -1 -1 -1 -1 -1 -1 -1 -1 -2 -2 -2 -2 -2 -2 -2 -2 -2 -2 -2 -2 -2 -2 -2 -2
-1 0 1 4 11 13 11 7 9 7 5 4 4 5 6 7 4 4 3 0 -0 -0 -1 -1 -1 -1 -1 -1 -1 -1 -1 -1 -1 -1 -2 -2 -2 -2 -2 -2 -3 -2 -2 -2 -2 -2 -2 -2 -2
-0 1 5 8 11 13 11 7 7 6 4 5 5 4 5 6 4 3 1 0 -0 -0 -1 -1 -1 -1 -1 -1 -1 -1 -1 -1 -1 -1 -2 -2 -2 -2 -2 -2 -2 -2 -2 -2 -2 -2 -2 -2 -2
1 3 5 11 12 10 9 7 6 6 5 4 4 6 3 2 3 2 0 -0 0 0 -0 -1 -1 -1 -1 -1 -1 -1 -1 -1 -1 -1 -2 -2 -2 -2 -2 -2 -2 -2 -2 -2 -2 -2 -2 -2 -2
1 4 10 11 12 10 8 6 5 6 5 5 4 6 5 3 1 1 1 0 1 0 -0 -1 -1 -1 -1 -1 -1 -1 -1 -1 -2 -2 -2 -2 -2 -2 -2 -2 -2 -2 -2 -2 -2 -2 -2 -2 -2
6 7 12 13 12 10 8 6 6 6 5 5 5 5 4 2 2 2 1 0 0 0 -0 -1 -1 -1 -1 -1 -1 -1 -1 -1 -1 -2 -2 -2 -2 -2 -2 -2 -2 -2 -2 -2 -2 -2 -2 -2 -2
8 10 12 12 12 11 9 6 6 6 6 6 4 6 4 3 1 1 1 0 0 -0 -0 -0 -1 -1 -0 -1 -1 -1 -1 -1 -1 -2 -2 -2 -1 -2 -2 -1 -2 -2 -2 -2 -2 -2 -2 -2 -2
7 10 12 12 12 11 7 5 4 5 6 3 3 6 6 3 1 1 1 1 0 0 -0 -0 -1 -1 -1 -1 -0 -1 -1 -1 -1 -1 -1 -1 -1 -1 -1 -1 -1 -2 -2 -2 -2 -2 -2 -2 -2
6 12 14 13 11 9 5 6 4 3 5 4 4 4 3 1 1 2 2 2 1 1 0 -0 -0 -1 -1 -1 -0 -0 -0 -0 -1 -0 -0 -0 -1 -1 -1 -0 -1 -1 -1 -2 -2 -2 -2 -2 -2
9 12 12 8 8 8 6 6 6 6 5 5 5 3 2 2 3 4 4 4 3 2 1 0 -0 -0 -1 -1 -1 -1 -1 -1 -1 -1 -1 -1 -1 -1 -1 -0 -0 -1 -1 -1 -1 -1 -2 -1 -1
8 11 8 7 6 6 6 6 5 7 8 5 6 4 3 3 3 3 3 3 3 2 1 0 0 -0 -1 -1 -1 -1 -0 -1 -1 -1 -1 -1 -1 -1 -1 -1 -1 -1 -1 -1 -1 -1 -1 -1 -1
10 7 7 6 5 6 7 5 6 6 6 4 4 3 3 3 5 5 3 3 3 2 1 1 0 -0 -1 -1 -1 -1 -1 -1 -1 -1 -1 -1 -1 -1 -1 -1 -1 -1 -1 -1 -1 -1 -1 -1 -1
8 7 6 6 5 6 5 6 6 6 4 3 3 4 3 3 4 4 4 2 2 2 2 1 0 -0 -0 -0 -1 -1 -1 -1 -1 -1 -1 -1 -1 -0 -1 -1 -1 -1 -1 -1 -1 -1 -1 -1 -1
6 7 7 6 6 6 7 7 6 5 4 4 4 4 4 3 4 5 5 3 3 2 2 1 0 -0 -0 -0 -0 -0 -1 -1 -1 -1 -1 -1 -1 -1 -1 -1 -1 -1 -1 -1 -1 -1 -1 -1 -1
6 9 7 7 7 7 6 9 8 5 4 5 5 5 4 4 4 3 4 3 3 4 1 1 1 -0 -0 0 -0 -0 -1 -1 -1 -1 -1 -1 -1 -1 -1 -1 -1 -1 -1 -1 -1 -1 -1 -1 -1
8 9 12 7 6 7 7 12 7 4 5 6 5 5 5 4 4 3 3 3 2 3 2 1 0 0 0 0 0 -0 -1 -1 -1 -1 -1 -1 -1 -1 -1 -1 -1 -1 -1 -1 -1 -1 -0 -0 -0
10 14 11 9 6 7 9 11 7 5 5 6 6 6 6 5 5 3 3 4 2 3 2 1 1 1 0 -0 -0 -0 -0 -1 -1 -1 -1 -1 -1 -1 -1 -1 -1 -1 -1 -1 -0 -0 -0 0 0
13 13 11 11 8 9 10 10 7 6 7 7 6 6 6 6 6 4 3 2 2 1 1 1 1 1 0 0 0 -0 -0 -0 -1 -1 -1 -1 -1 -1 -1 -1 -1 -1 -0 -0 -0 0 -0 -0 -0
11 12 13 10 8 9 11 10 8 8 7 7 7 7 7 6 5 4 4 4 2 2 2 1 2 1 1 1 1 1 1 1 0 -1 -1 -1 -1 -1 -1 -1 -1 -1 -0 -0 -0 0 1 1 0
11 12 13 10 8 9 10 11 8 7 8 7 7 8 7 7 6 5 4 3 3 2 2 2 1 1 1 1 1 1 1 0 -0 -1 -1 -1 -1 -1 -1 -1 -0 -0 -0 0 0 0 1 1 0
11 13 13 13 11 9 11 13 10 9 8 7 6 6 7 7 6 5 5 3 3 3 2 2 2 1 1 0 0 1 0 0 1 0 0 -1 -1 -1 -1 -1 -1 -0 -0 0 0 0 1 2 0
14 11 12 13 14 18 10 18 13 11 10 9 7 7 7 6 6 5 5 4 3 3 2 2 1 1 1 0 1 2 2 2 1 1 0 -0 -1 -1 -1 -1 -1 -1 -1 -0 -0 -0 0 1 2
13 10 12 13 15 15 15 17 15 12 13 10 8 7 6 6 6 5 4 4 3 2 2 2 1 1 1 1 1 2 2 1 1 1 1 0 -0 -1 -1 -1 -1 -0 -1 -0 1 1 1 0 1
10 12 12 13 15 19 16 15 17 14 12 10 8 7 7 6 5 5 3 3 3 2 2 2 2 2 1 2 1 1 2 2 2 1 1 1 1 0 -0 -0 -0 -0 -0 0 -0 -0 -0 0 0
11 14 18 20 20 21 15 15 14 10 9 9 8 7 6 6 6 6 5 4 4 3 3 2 2 2 1 1 1 1 2 2 2 1 1 1 1 1 0 -0 0 0 -0 -0 -0 -0 0 0 1
13 14 18 22 22 20 14 18 15 10 10 9 7 7 7 7 7 7 5 4 4 3 3 2 2 2 2 2 2 1 2 2 1 1 1 1 1 1 -0 0 0 -0 -0 -0 -0 0 1 -0 0
13 15 12 16 14 17 17 13 10 9 10 9 8 9 9 8 8 8 5 4 3 3 3 3 2 2 2 2 1 2 1 3 1 1 1 1 1 1 1 0 0 0 -0 -0 -0 0 0 -0 0
11 11 16 15 20 22 18 17 16 12 12 11 10 10 9 8 9 7 6 4 4 3 3 2 2 2 2 1 1 1 2 3 2 2 1 1 1 1 1 1 1 1 1 0 -0 0 0 0 1
13 14 13 13 14 18 20 18 12 12 11 12 11 9 9 9 9 7 7 5 3 3 2 2 2 2 2 2 1 1 1 1 1 1 1 2 2 1 2 2 2 2 2 1 1 1 2 2 2
10 12 12 16 17 15 15 17 10 9 9 10 11 10 9 9 9 7 7 6 4 3 3 3 3 3 2 2 2 2 2 2 2 3 3 3 3 2 3 3 3 3 3 2 2 3 3 2 2